PIA451 OPSD-OPLA

Flight info

Callsign PIA451
Flight time 0h 55m
Altitude 32000
Route DELDA J125 RN/N0471F310 Z306 INDEK J121 AKBER
Aircraft A320/M-SDE3FGHIRWY/LB1

Departure

Time 2026-04-25 02:26
Airport Skardu International Airport (OPSD)

Arrival

Time 2026-04-25 03:21
Airport Allama Iqbal International Airport (OPLA)
Time Latitude Longitude Altitude Speed Heading
2026-04-25 02:00 35.33106 75.54180 7381 ft 0 kts 147°
2026-04-25 02:18 35.33108 75.54179 7381 ft 1 kts 147°
2026-04-25 02:19 35.33122 75.54168 7383 ft 3 kts 146°
2026-04-25 02:19 35.33137 75.54154 7383 ft 3 kts 121°
2026-04-25 02:19 35.33142 75.54143 7383 ft 2 kts 58°
2026-04-25 02:19 35.33138 75.54136 7383 ft 0 kts 57°
2026-04-25 02:21 35.33146 75.54151 7380 ft 7 kts 57°
2026-04-25 02:21 35.33170 75.54197 7380 ft 5 kts 59°
2026-04-25 02:22 35.33194 75.54242 7381 ft 8 kts 56°
2026-04-25 02:22 35.33238 75.54323 7381 ft 15 kts 60°
2026-04-25 02:22 35.33188 75.54432 7380 ft 19 kts 146°
2026-04-25 02:22 35.33066 75.54529 7379 ft 22 kts 147°
2026-04-25 02:23 35.32927 75.54640 7377 ft 25 kts 147°
2026-04-25 02:23 35.32776 75.54763 7379 ft 27 kts 148°
2026-04-25 02:23 35.32615 75.54886 7380 ft 25 kts 134°
2026-04-25 02:23 35.32652 75.55008 7380 ft 16 kts 60°
2026-04-25 02:24 35.32683 75.55137 7384 ft 17 kts 109°
2026-04-25 02:24 35.32619 75.55262 7384 ft 15 kts 152°
2026-04-25 02:24 35.32591 75.55239 7383 ft 5 kts 276°
2026-04-25 02:24 35.32664 75.55158 7384 ft 35 kts 323°
2026-04-25 02:25 35.33090 75.54820 7378 ft 109 kts 327°
2026-04-25 02:25 35.33900 75.54177 7380 ft 166 kts 327°
2026-04-25 02:25 35.34997 75.53323 7515 ft 200 kts 328°
2026-04-25 02:25 35.36230 75.52343 7866 ft 225 kts 327°
2026-04-25 02:26 35.37634 75.51192 8177 ft 260 kts 326°
2026-04-25 02:26 35.39137 75.49907 9123 ft 265 kts 323°
2026-04-25 02:26 35.40442 75.48386 10538 ft 255 kts 308°
2026-04-25 02:26 35.41447 75.46564 11493 ft 264 kts 303°
2026-04-25 02:27 35.42584 75.44737 12260 ft 275 kts 314°
2026-04-25 02:27 35.44047 75.43224 13048 ft 277 kts 324°
2026-04-25 02:27 35.45627 75.41823 13662 ft 283 kts 321°
2026-04-25 02:27 35.47137 75.40254 14266 ft 286 kts 316°
2026-04-25 02:28 35.48525 75.38497 14893 ft 286 kts 308°
2026-04-25 02:28 35.49679 75.36529 15611 ft 283 kts 300°
2026-04-25 02:28 35.50671 75.34453 16359 ft 281 kts 296°
2026-04-25 02:28 35.51516 75.32339 17122 ft 272 kts 291°
2026-04-25 02:29 35.52117 75.30178 17924 ft 264 kts 282°
2026-04-25 02:29 35.52475 75.27977 18524 ft 264 kts 276°
2026-04-25 02:29 35.52672 75.25716 18839 ft 272 kts 274°
2026-04-25 02:29 35.52854 75.23337 18962 ft 289 kts 274°
2026-04-25 02:30 35.53046 75.20805 19083 ft 307 kts 275°
2026-04-25 02:30 35.53667 75.18228 19209 ft 327 kts 295°
2026-04-25 02:30 35.54776 75.15737 19319 ft 344 kts 297°
2026-04-25 02:30 35.55964 75.13120 19441 ft 358 kts 297°
2026-04-25 02:31 35.57210 75.10379 19553 ft 374 kts 297°
2026-04-25 02:31 35.58502 75.07528 19678 ft 388 kts 297°
2026-04-25 02:31 35.59837 75.04577 19840 ft 400 kts 297°
2026-04-25 02:31 35.61194 75.01565 20152 ft 404 kts 296°
2026-04-25 02:32 35.62557 74.98531 20586 ft 407 kts 296°
2026-04-25 02:32 35.63928 74.95481 21048 ft 409 kts 296°
2026-04-25 02:32 35.65307 74.92409 21534 ft 411 kts 296°
2026-04-25 02:32 35.66691 74.89322 21967 ft 413 kts 296°
2026-04-25 02:33 35.68076 74.86215 22364 ft 415 kts 295°
2026-04-25 02:33 35.69155 74.82943 22796 ft 413 kts 283°
2026-04-25 02:33 35.69642 74.79522 23198 ft 411 kts 272°
2026-04-25 02:33 35.69545 74.76008 23549 ft 411 kts 261°
2026-04-25 02:34 35.68858 74.72585 23982 ft 414 kts 250°
2026-04-25 02:34 35.67628 74.69391 24340 ft 415 kts 242°
2026-04-25 02:34 35.66217 74.66279 24694 ft 417 kts 242°
2026-04-25 02:34 35.64795 74.63165 25003 ft 418 kts 242°
2026-04-25 02:35 35.63276 74.60110 25308 ft 420 kts 235°
2026-04-25 02:35 35.61370 74.57360 25617 ft 424 kts 229°
2026-04-25 02:35 35.59337 74.54714 25908 ft 426 kts 229°
2026-04-25 02:35 35.57337 74.52091 26159 ft 427 kts 229°
2026-04-25 02:36 35.55307 74.49416 26422 ft 428 kts 230°
2026-04-25 02:36 35.53275 74.46731 26664 ft 430 kts 230°
2026-04-25 02:36 35.51235 74.44039 26916 ft 431 kts 230°
2026-04-25 02:36 35.49185 74.41342 27153 ft 433 kts 230°
2026-04-25 02:37 35.47119 74.38634 27378 ft 435 kts 230°
2026-04-25 02:37 35.45048 74.35924 27674 ft 435 kts 230°
2026-04-25 02:37 35.42978 74.33218 27939 ft 436 kts 230°
2026-04-25 02:37 35.40902 74.30506 28200 ft 437 kts 230°
2026-04-25 02:38 35.38824 74.27793 28501 ft 436 kts 230°
2026-04-25 02:38 35.36753 74.25088 28825 ft 435 kts 230°
2026-04-25 02:38 35.34687 74.22395 29182 ft 432 kts 230°
2026-04-25 02:38 35.32626 74.19710 29504 ft 431 kts 231°
2026-04-25 02:39 35.30577 74.17044 29883 ft 430 kts 231°
2026-04-25 02:39 35.28533 74.14382 30279 ft 428 kts 231°
2026-04-25 02:39 35.26519 74.11761 30549 ft 427 kts 231°
2026-04-25 02:39 35.24488 74.09117 30850 ft 426 kts 231°
2026-04-25 02:40 35.22460 74.06483 31148 ft 425 kts 231°
2026-04-25 02:40 35.20439 74.03861 31387 ft 424 kts 231°
2026-04-25 02:40 35.18417 74.01230 31625 ft 423 kts 232°
2026-04-25 02:40 35.16425 73.98601 31926 ft 420 kts 233°
2026-04-25 02:41 35.14455 73.95976 32219 ft 418 kts 233°
2026-04-25 02:41 35.10522 73.90716 32295 ft 420 kts 233°
2026-04-25 02:42 35.06562 73.85457 32304 ft 421 kts 233°
2026-04-25 02:42 35.02586 73.80198 32323 ft 421 kts 233°
2026-04-25 02:43 34.98607 73.74951 32315 ft 421 kts 233°
2026-04-25 02:43 34.94660 73.69742 32312 ft 421 kts 233°
2026-04-25 02:44 34.90682 73.64510 32293 ft 421 kts 233°
2026-04-25 02:44 34.86706 73.59298 32283 ft 419 kts 233°
2026-04-25 02:45 34.82745 73.54111 32291 ft 418 kts 233°
2026-04-25 02:45 34.78571 73.49181 32208 ft 422 kts 223°
2026-04-25 02:46 34.73208 73.45972 32222 ft 439 kts 208°
2026-04-25 02:46 34.67446 73.43403 32195 ft 442 kts 208°
2026-04-25 02:47 34.61706 73.40867 32196 ft 443 kts 208°
2026-04-25 02:47 34.55902 73.38300 32164 ft 444 kts 209°
2026-04-25 02:48 34.50103 73.35726 32121 ft 444 kts 209°
2026-04-25 02:48 34.44314 73.33158 32086 ft 443 kts 208°
2026-04-25 02:49 34.38521 73.30591 32060 ft 444 kts 209°
2026-04-25 02:49 34.32710 73.28060 32025 ft 445 kts 208°
2026-04-25 02:50 34.26760 73.25829 32026 ft 449 kts 206°
2026-04-25 02:50 34.20827 73.23483 32031 ft 447 kts 208°
2026-04-25 02:51 34.14984 73.20947 32005 ft 446 kts 209°
2026-04-25 02:51 34.09151 73.18386 32017 ft 446 kts 208°
2026-04-25 02:52 34.03141 73.16429 31984 ft 462 kts 194°
2026-04-25 02:52 33.96686 73.15858 31982 ft 465 kts 192°
2026-04-25 02:53 33.90222 73.15284 31985 ft 465 kts 193°
2026-04-25 02:53 33.83761 73.14692 31978 ft 466 kts 193°
2026-04-25 02:54 33.77291 73.14102 31968 ft 467 kts 192°
2026-04-25 02:54 33.70815 73.13518 31970 ft 466 kts 192°
2026-04-25 02:55 33.64381 73.12938 31965 ft 466 kts 192°
2026-04-25 02:55 33.58914 73.12876 31965 ft 477 kts 181°
2026-04-25 02:56 33.52314 73.13981 31939 ft 479 kts 179°
2026-04-25 02:56 33.45709 73.15093 31944 ft 479 kts 179°
2026-04-25 02:57 33.39114 73.16191 31952 ft 478 kts 179°
2026-04-25 02:57 33.32569 73.17290 31953 ft 478 kts 179°
2026-04-25 02:58 33.25975 73.18399 31940 ft 478 kts 179°
2026-04-25 02:58 33.19392 73.19508 31939 ft 478 kts 179°
2026-04-25 02:59 33.12802 73.20607 31939 ft 478 kts 179°
2026-04-25 02:59 33.06218 73.21696 31911 ft 477 kts 178°
2026-04-25 03:00 32.99648 73.22789 31920 ft 477 kts 178°
2026-04-25 03:00 32.93065 73.23888 31906 ft 477 kts 178°
2026-04-25 03:01 32.86490 73.24980 31916 ft 477 kts 178°
2026-04-25 03:01 32.79928 73.26218 31911 ft 482 kts 171°
2026-04-25 03:02 32.73733 73.29387 31900 ft 497 kts 152°
2026-04-25 03:02 32.68166 73.34358 31894 ft 501 kts 147°
2026-04-25 03:03 32.62630 73.39391 31877 ft 501 kts 147°
2026-04-25 03:03 32.57082 73.44420 31865 ft 502 kts 147°
2026-04-25 03:04 32.51532 73.49453 31876 ft 502 kts 147°
2026-04-25 03:04 32.45979 73.54478 31876 ft 502 kts 147°
2026-04-25 03:05 32.37657 73.61991 31910 ft 500 kts 147°
2026-04-25 03:05 32.32135 73.66971 31871 ft 499 kts 147°
2026-04-25 03:06 32.26610 73.71942 31873 ft 498 kts 147°
2026-04-25 03:06 32.21090 73.76896 31870 ft 498 kts 147°
2026-04-25 03:07 32.18349 73.79357 30927 ft 494 kts 146°
2026-04-25 03:07 32.15597 73.81828 29270 ft 499 kts 146°
2026-04-25 03:07 32.12824 73.84310 27501 ft 502 kts 146°
2026-04-25 03:07 32.10072 73.86769 25770 ft 503 kts 147°
2026-04-25 03:08 32.07282 73.89259 24331 ft 500 kts 147°
2026-04-25 03:08 32.04544 73.91709 23137 ft 489 kts 147°
2026-04-25 03:08 32.01866 73.94111 21846 ft 479 kts 147°
2026-04-25 03:08 31.99239 73.96463 20654 ft 469 kts 146°
2026-04-25 03:09 31.96668 73.98761 19521 ft 460 kts 146°
2026-04-25 03:09 31.94142 74.01015 18434 ft 451 kts 146°
2026-04-25 03:09 31.91675 74.03242 17267 ft 443 kts 145°
2026-04-25 03:09 31.89270 74.05459 16151 ft 435 kts 144°
2026-04-25 03:10 31.86918 74.07656 15071 ft 427 kts 144°
2026-04-25 03:10 31.84493 74.09581 14059 ft 415 kts 154°
2026-04-25 03:10 31.81894 74.10946 12990 ft 405 kts 164°
2026-04-25 03:10 31.79229 74.12021 12083 ft 406 kts 164°
2026-04-25 03:11 31.76552 74.13091 11317 ft 406 kts 163°
2026-04-25 03:11 31.73888 74.14152 10677 ft 402 kts 163°
2026-04-25 03:11 31.71253 74.15201 10054 ft 398 kts 163°
2026-04-25 03:11 31.68650 74.16239 9425 ft 392 kts 162°
2026-04-25 03:12 31.66083 74.17276 8765 ft 388 kts 162°
2026-04-25 03:12 31.63541 74.18301 8114 ft 384 kts 162°
2026-04-25 03:12 31.61056 74.19302 7472 ft 381 kts 162°
2026-04-25 03:12 31.58565 74.20304 6861 ft 375 kts 162°
2026-04-25 03:13 31.56107 74.21292 6285 ft 370 kts 162°
2026-04-25 03:13 31.53714 74.22249 6052 ft 355 kts 162°
2026-04-25 03:13 31.51439 74.23160 5990 ft 335 kts 162°
2026-04-25 03:13 31.49304 74.24019 6016 ft 313 kts 162°
2026-04-25 03:14 31.47298 74.24828 6018 ft 295 kts 162°
2026-04-25 03:14 31.45412 74.25585 6008 ft 280 kts 162°
2026-04-25 03:14 31.43607 74.26307 5924 ft 275 kts 162°
2026-04-25 03:14 31.41800 74.27026 5577 ft 274 kts 162°
2026-04-25 03:15 31.40003 74.27743 5202 ft 272 kts 162°
2026-04-25 03:15 31.38222 74.28449 4929 ft 267 kts 162°
2026-04-25 03:15 31.36469 74.29145 4640 ft 264 kts 161°
2026-04-25 03:15 31.34917 74.30221 4350 ft 260 kts 134°
2026-04-25 03:16 31.34023 74.32033 4061 ft 259 kts 103°
2026-04-25 03:16 31.33990 74.34097 3779 ft 255 kts 80°
2026-04-25 03:16 31.34270 74.36145 3554 ft 254 kts 78°
2026-04-25 03:16 31.34646 74.38167 3485 ft 256 kts 64°
2026-04-25 03:17 31.35738 74.39663 3384 ft 237 kts 26°
2026-04-25 03:17 31.37280 74.40171 3175 ft 229 kts
2026-04-25 03:17 31.38857 74.40242 2912 ft 226 kts 359°
2026-04-25 03:17 31.40391 74.40254 2660 ft 213 kts 359°
2026-04-25 03:18 31.41780 74.40275 2395 ft 187 kts 359°
2026-04-25 03:18 31.42994 74.40296 2167 ft 163 kts 359°
2026-04-25 03:18 31.44086 74.40316 1963 ft 151 kts
2026-04-25 03:18 31.45131 74.40333 1783 ft 147 kts 359°
2026-04-25 03:19 31.46150 74.40349 1598 ft 146 kts 359°
2026-04-25 03:19 31.47153 74.40369 1428 ft 143 kts
2026-04-25 03:19 31.48157 74.40385 1258 ft 143 kts
2026-04-25 03:19 31.49155 74.40411 1006 ft 143 kts 359°
2026-04-25 03:20 31.50147 74.40429 851 ft 142 kts 359°
2026-04-25 03:20 31.51127 74.40445 736 ft 140 kts
2026-04-25 03:20 31.51983 74.40457 719 ft 92 kts
2026-04-25 03:20 31.52435 74.40464 717 ft 51 kts
2026-04-25 03:21 31.52702 74.40468 720 ft 31 kts
2026-04-25 03:21 31.52833 74.40422 719 ft 16 kts 310°
2026-04-25 03:21 31.52915 74.40333 720 ft 16 kts 319°
2026-04-25 03:21 31.52968 74.40223 720 ft 16 kts 270°
2026-04-25 03:22 31.52889 74.40159 720 ft 14 kts 183°
2026-04-25 03:22 31.52797 74.40155 722 ft 12 kts 181°
2026-04-25 03:22 31.52715 74.40154 720 ft 11 kts 179°
2026-04-25 03:22 31.52663 74.40202 720 ft 9 kts 107°
2026-04-25 03:23 31.52677 74.40277 722 ft 14 kts 60°
2026-04-25 03:23 31.52755 74.40380 718 ft 20 kts 47°
2026-04-25 03:23 31.52803 74.40534 718 ft 21 kts 87°
2026-04-25 03:23 31.52740 74.40667 720 ft 22 kts 169°
2026-04-25 03:24 31.52598 74.40674 719 ft 19 kts 180°
2026-04-25 03:24 31.52506 74.40674 720 ft 12 kts 179°
2026-04-25 03:24 31.52454 74.40675 721 ft 4 kts 179°
2026-04-25 03:24 31.52425 74.40677 717 ft 9 kts 174°
2026-04-25 03:25 31.52407 74.40757 721 ft 15 kts 92°
2026-04-25 03:25 31.52355 74.40849 721 ft 13 kts 176°
2026-04-25 03:25 31.52266 74.40845 719 ft 12 kts 182°
2026-04-25 03:25 31.52188 74.40844 718 ft 10 kts 180°
2026-04-25 03:26 31.52180 74.40844 717 ft 0 kts 180°
2026-04-25 03:26 31.52172 74.40852 720 ft 4 kts 132°
2026-04-25 03:26 31.52168 74.40893 717 ft 5 kts 89°
2026-04-25 03:26 31.52169 74.40925 719 ft 3 kts 90°
2026-04-25 03:27 31.52169 74.40948 720 ft 2 kts 90°
2026-04-25 03:27 31.52169 74.40952 717 ft 0 kts 90°